• In United Kingdom
  • List of Countries
  • For 7 days
  • Water Temperature
  • Satellite Maps
  • Weather Map
  • Weather Widgets
  • user-avatar
    Login

    Hourly Weather Banfora

    Today, 13 November, Tuesday

    Time Temperature Precipitation Wind Pressure Humidity
    00:00 +29°C° 0 mm 1 mps 732 mmHg 33%
    01:00 +29°C° 0 mm 1 mps 732 mmHg 36%
    02:00 +28°C° 0 mm 1 mps 731 mmHg 38%
    03:00 +28°C° 0 mm 1 mps 731 mmHg 41%
    04:00 +27°C° 0 mm 1 mps 731 mmHg 45%
    05:00 +27°C° 0 mm 1 mps 731 mmHg 48%
    06:00 +27°C° 0 mm 1 mps 731 mmHg 53%
    07:00 +28°C° 0 mm 1 mps 732 mmHg 53%
    08:00 +30°C° 0 mm 2 mps 732 mmHg 53%
    09:00 +33°C° 0 mm 3 mps 732 mmHg 52%
    10:00 +35°C° 0 mm 2 mps 732 mmHg 46%
    11:00 +37°C° 0 mm 2 mps 732 mmHg 39%
    12:00 +39°C° 0 mm 2 mps 732 mmHg 33%
    13:00 +39°C° 0 mm 1 mps 731 mmHg 30%
    14:00 +40°C° 0 mm 1 mps 731 mmHg 28%
    15:00 +40°C° 0 mm 1 mps 730 mmHg 26%
    16:00 +37°C° 0 mm 1 mps 730 mmHg 29%
    17:00 +34°C° 0 mm 0 mps 730 mmHg 32%
    18:00 +32°C° 0 mm 0 mps 730 mmHg 35%
    19:00 +31°C° 0 mm 0 mps 731 mmHg 36%
    20:00 +33°C° 0 mm 1 mps 731 mmHg 37%
    21:00 +32°C° 0 mm 1 mps 732 mmHg 38%
    22:00 +32°C° 0 mm 1 mps 732 mmHg 39%
    23:00 +32°C° 0 mm 1 mps 732 mmHg 40%

    Tomorrow, 14 November, Wednesday

    Time Temperature Precipitation Wind Pressure Humidity
    00:00 +31°C° 0 mm 1 mps 731 mmHg 41%
    01:00 +31°C° 0 mm 1 mps 731 mmHg 42%
    02:00 +31°C° 0 mm 1 mps 731 mmHg 44%
    03:00 +30°C° 0 mm 1 mps 731 mmHg 45%
    04:00 +30°C° 0 mm 1 mps 731 mmHg 48%
    05:00 +29°C° 0 mm 1 mps 731 mmHg 51%
    06:00 +28°C° 0 mm 1 mps 731 mmHg 54%
    07:00 +30°C° 0 mm 1 mps 731 mmHg 52%
    08:00 +31°C° 0 mm 1 mps 732 mmHg 50%
    09:00 +33°C° 0 mm 1 mps 732 mmHg 48%
    10:00 +35°C° 0 mm 1 mps 732 mmHg 43%
    11:00 +37°C° 0 mm 1 mps 732 mmHg 38%
    12:00 +40°C° 0 mm 1 mps 732 mmHg 32%
    13:00 +39°C° 0 mm 1 mps 731 mmHg 31%
    14:00 +39°C° 0 mm 1 mps 730 mmHg 29%
    15:00 +39°C° 0 mm 1 mps 730 mmHg 27%
    16:00 +37°C° 0 mm 2 mps 730 mmHg 31%
    17:00 +36°C° 0 mm 2 mps 730 mmHg 34%
    18:00 +34°C° 0 mm 2 mps 730 mmHg 38%
    19:00 +34°C° 0 mm 2 mps 731 mmHg 41%
    20:00 +32°C° 0 mm 2 mps 731 mmHg 45%
    21:00 +31°C° 0 mm 2 mps 732 mmHg 48%
    22:00 +30°C° 0 mm 2 mps 732 mmHg 48%
    23:00 +30°C° 0 mm 1 mps 732 mmHg 48%

    Day after tomorrow, 15 November, Thursday

    Time Temperature Precipitation Wind Pressure Humidity
    00:00 +29°C° 0 mm 1 mps 732 mmHg 48%
    01:00 +29°C° 0 mm 1 mps 732 mmHg 48%
    02:00 +28°C° 0 mm 1 mps 731 mmHg 47%
    03:00 +28°C° 0 mm 1 mps 731 mmHg 47%
    04:00 +27°C° 0 mm 1 mps 731 mmHg 50%
    05:00 +27°C° 0 mm 1 mps 731 mmHg 54%
    06:00 +27°C° 0 mm 1 mps 731 mmHg 58%
    07:00 +28°C° 0 mm 1 mps 732 mmHg 57%
    08:00 +29°C° 0 mm 2 mps 732 mmHg 56%
    09:00 +31°C° 0 mm 2 mps 733 mmHg 55%
    10:00 +34°C° 0 mm 2 mps 733 mmHg 46%
    11:00 +36°C° 0 mm 1 mps 732 mmHg 37%
    12:00 +40°C° 0 mm 1 mps 732 mmHg 27%
    13:00 +40°C° 0 mm 1 mps 732 mmHg 24%
    14:00 +40°C° 0 mm 1 mps 731 mmHg 21%
    15:00 +41°C° 0 mm 1 mps 730 mmHg 18%
    16:00 +39°C° 0 mm 1 mps 730 mmHg 20%
    17:00 +36°C° 0 mm 1 mps 730 mmHg 22%
    18:00 +34°C° 0 mm 1 mps 730 mmHg 23%
    19:00 +33°C° 0 mm 1 mps 731 mmHg 24%
    20:00 +32°C° 0 mm 1 mps 732 mmHg 24%
    21:00 +31°C° 0 mm 1 mps 733 mmHg 25%
    22:00 +31°C° 0 mm 1 mps 733 mmHg 25%
    23:00 +30°C° 0 mm 1 mps 733 mmHg 25%

    16 November, Friday

    Time Temperature Precipitation Wind Pressure Humidity
    00:00 +30°C° 0 mm 1 mps 733 mmHg 25%
    01:00 +29°C° 0 mm 1 mps 732 mmHg 26%
    02:00 +28°C° 0 mm 1 mps 732 mmHg 26%
    03:00 +26°C° 0 mm 0 mps 731 mmHg 27%
    04:00 +27°C° 0 mm 1 mps 732 mmHg 30%
    05:00 +27°C° 0 mm 1 mps 732 mmHg 33%
    06:00 +26°C° 0 mm 1 mps 732 mmHg 35%
    07:00 +28°C° 0 mm 1 mps 733 mmHg 34%
    08:00 +29°C° 0 mm 0 mps 733 mmHg 32%
    09:00 +31°C° 0 mm 0 mps 734 mmHg 31%
    10:00 +33°C° 0 mm 0 mps 733 mmHg 27%
    11:00 +37°C° 0 mm 1 mps 733 mmHg 24%
    12:00 +39°C° 0 mm 1 mps 733 mmHg 21%
    13:00 +39°C° 0 mm 1 mps 732 mmHg 20%
    14:00 +36°C° 0 mm 0 mps 731 mmHg 20%
    15:00 +36°C° 0 mm 0 mps 730 mmHg 20%
    16:00 +36°C° 0 mm 1 mps 730 mmHg 22%
    17:00 +35°C° 0 mm 1 mps 730 mmHg 24%
    18:00 +33°C° 0 mm 1 mps 731 mmHg 26%
    19:00 +34°C° 0 mm 2 mps 731 mmHg 26%
    20:00 +32°C° 0 mm 2 mps 732 mmHg 26%
    21:00 +32°C° 0 mm 2 mps 733 mmHg 26%
    22:00 +31°C° 0 mm 1 mps 732 mmHg 27%
    23:00 +31°C° 0 mm 1 mps 732 mmHg 29%

    17 November, Saturday

    Time Temperature Precipitation Wind Pressure Humidity
    00:00 +30°C° 0 mm 1 mps 732 mmHg 30%
    01:00 +29°C° 0 mm 1 mps 732 mmHg 34%
    02:00 +29°C° 0 mm 1 mps 731 mmHg 38%
    03:00 +28°C° 0 mm 2 mps 731 mmHg 42%
    04:00 +28°C° 0 mm 1 mps 731 mmHg 46%
    05:00 +28°C° 0 mm 1 mps 732 mmHg 51%
    06:00 +27°C° 0 mm 1 mps 732 mmHg 55%
    07:00 +29°C° 0 mm 1 mps 733 mmHg 55%
    08:00 +30°C° 0 mm 2 mps 733 mmHg 55%
    09:00 +31°C° 0 mm 2 mps 734 mmHg 55%
    10:00 +34°C° 0 mm 2 mps 733 mmHg 48%
    11:00 +37°C° 0 mm 2 mps 733 mmHg 41%
    12:00 +39°C° 0 mm 2 mps 732 mmHg 34%
    13:00 +39°C° 0 mm 1 mps 731 mmHg 31%
    14:00 +40°C° 0 mm 1 mps 731 mmHg 28%
    15:00 +38°C° 0 mm 0 mps 730 mmHg 25%
    16:00 +36°C° 0 mm 0 mps 730 mmHg 28%
    17:00 +37°C° 0 mm 1 mps 730 mmHg 30%
    18:00 +35°C° 0 mm 1 mps 730 mmHg 33%
    19:00 +34°C° 0 mm 1 mps 731 mmHg 35%
    20:00 +34°C° 0 mm 1 mps 732 mmHg 37%
    21:00 +35°C° 0 mm 2 mps 732 mmHg 40%
    22:00 +34°C° 0.4 mm 2 mps 732 mmHg 47%
    23:00 +32°C° 0.4 mm 2 mps 732 mmHg 53%

    18 November, Sunday

    Time Temperature Precipitation Wind Pressure Humidity
    00:00 +31°C° 0.4 mm 3 mps 732 mmHg 60%
    01:00 +30°C° 0.3 mm 3 mps 732 mmHg 64%
    02:00 +29°C° 0.3 mm 3 mps 731 mmHg 68%
    03:00 +28°C° 0.3 mm 3 mps 731 mmHg 72%
    04:00 +28°C° 0 mm 3 mps 731 mmHg 73%
    05:00 +28°C° 0 mm 2 mps 732 mmHg 74%
    06:00 +28°C° 0 mm 2 mps 732 mmHg 74%
    07:00 +28°C° 0 mm 2 mps 732 mmHg 72%
    08:00 +29°C° 0 mm 2 mps 733 mmHg 70%
    09:00 +30°C° 0 mm 3 mps 734 mmHg 67%
    10:00 +31°C° 0 mm 3 mps 733 mmHg 61%
    11:00 +34°C° 0 mm 3 mps 733 mmHg 54%
    12:00 +36°C° 0 mm 3 mps 732 mmHg 47%
    13:00 +37°C° 0 mm 2 mps 732 mmHg 43%
    14:00 +38°C° 0 mm 2 mps 731 mmHg 38%
    15:00 +39°C° 0 mm 1 mps 730 mmHg 34%
    16:00 +36°C° 0 mm 1 mps 731 mmHg 36%
    17:00 +35°C° 0 mm 1 mps 731 mmHg 39%
    18:00 +34°C° 0 mm 1 mps 731 mmHg 41%
    19:00 +33°C° 0.3 mm 1 mps 732 mmHg 45%
    20:00 +32°C° 0.3 mm 1 mps 732 mmHg 48%
    21:00 +31°C° 0.3 mm 1 mps 732 mmHg 52%
    22:00 +30°C° 0.4 mm 2 mps 732 mmHg 58%
    23:00 +29°C° 0.4 mm 2 mps 732 mmHg 64%
    Show more